Satellite: NO-44
Catalog number: 26931
Epoch time:      10112.09564026
Element set:     439
Inclination:      067.0534 deg
RA of node:       348.4915 deg
Eccentricity:    0.0005942
Arg of perigee:   264.3956 deg
Mean anomaly:     095.6494 deg
Mean motion:   14.29593212 rev/day
Decay rate:       1.10e-06 rev/day^2
Epoch rev:           44673
Checksum:              307

Satellite: SO-50
Catalog number: 27607
Epoch time:      10112.62134660
Element set:     156
Inclination:      064.5568 deg
RA of node:       165.2900 deg
Eccentricity:    0.0034858
Arg of perigee:   103.2559 deg
Mean anomaly:     257.2447 deg
Mean motion:   14.71528671 rev/day
Decay rate:       -3.0e-07 rev/day^2
Epoch rev:           39420
Checksum:              288

Satellite: CO-55
Catalog number: 27844
Epoch time:      10112.03505625
Element set:     830
Inclination:      098.7101 deg
RA of node:       121.8137 deg
Eccentricity:    0.0010046
Arg of perigee:   338.7968 deg
Mean anomaly:     021.2785 deg
Mean motion:   14.20700470 rev/day
Decay rate:        7.4e-07 rev/day^2
Epoch rev:           35311
Checksum:              266

Satellite: CO-57
Catalog number: 27848
Epoch time:      10111.49295591
Element set:     779
Inclination:      098.7144 deg
RA of node:       120.3640 deg
Eccentricity:    0.0009865
Arg of perigee:   344.9078 deg
Mean anomaly:     015.1814 deg
Mean motion:   14.20493551 rev/day
Decay rate:        4.1e-07 rev/day^2
Epoch rev:           35299
Checksum:              322

Satellite: AO-51
Catalog number: 28375
Epoch time:      10111.89238566
Element set:     657
Inclination:      098.0609 deg
RA of node:       108.5997 deg
Eccentricity:    0.0083262
Arg of perigee:   268.8503 deg
Mean anomaly:     090.3147 deg
Mean motion:   14.40680553 rev/day
Decay rate:        4.7e-07 rev/day^2
Epoch rev:           30540
Checksum:              318

Satellite: GENESAT1
Catalog number: 29655
Epoch time:      10112.87864790
Element set:      25
Inclination:      040.0182 deg
RA of node:       027.2356 deg
Eccentricity:    0.0009310
Arg of perigee:   283.3549 deg
Mean anomaly:     076.6333 deg
Mean motion:   15.82990673 rev/day
Decay rate:     8.2919e-04 rev/day^2
Epoch rev:           19119
Checksum:              311

Satellite: CP3
Catalog number: 31129
Epoch time:      10111.09842276
Element set:     558
Inclination:      097.9439 deg
RA of node:       153.7093 deg
Eccentricity:    0.0103606
Arg of perigee:   051.3912 deg
Mean anomaly:     309.6615 deg
Mean motion:   14.52241386 rev/day
Decay rate:        7.7e-07 rev/day^2
Epoch rev:           15957
Checksum:              302

Satellite: CO-65
Catalog number: 32785
Epoch time:      10112.31449526
Element set:     661
Inclination:      097.8992 deg
RA of node:       178.0014 deg
Eccentricity:    0.0016108
Arg of perigee:   104.6797 deg
Mean anomaly:     255.6140 deg
Mean motion:   14.81631723 rev/day
Decay rate:       -2.4e-07 rev/day^2
Epoch rev:           10721
Checksum:              291

Satellite: KKS-1
Catalog number: 33493
Epoch time:      10112.71690487
Element set:     412
Inclination:      098.0782 deg
RA of node:       231.7559 deg
Eccentricity:    0.0019133
Arg of perigee:   323.7318 deg
Mean anomaly:     036.2601 deg
Mean motion:   14.80949591 rev/day
Decay rate:       5.17e-06 rev/day^2
Epoch rev:            6727
Checksum:              300

Satellite: SOHLA-1
Catalog number: 33496
Epoch time:      10112.18962228
Element set:      83
Inclination:      098.0522 deg
RA of node:       222.0055 deg
Eccentricity:    0.0007142
Arg of perigee:   029.9282 deg
Mean anomaly:     330.2333 deg
Mean motion:   14.69486423 rev/day
Decay rate:        6.4e-07 rev/day^2
Epoch rev:            6665
Checksum:              276

/EX
SB KEPS @ AMSAT  $ORB10112.W
Orbital Elements  10112.WEATHER

HR AMSAT ORBITAL ELEMENTS FOR WEATHER SATELLITES
FROM WA5QGD FORT WORTH,TX April 22, 2010
Send Subscribe/unsubscribe to KEPS at http://www.amsat.org/mailman/listinfo/kep
BID: ORB10112.W
TO ALL RADIO AMATEURS BT

Satellite: NOAA-10
Catalog number: 16969
Epoch time:      10112.14592140
Element set:      39
Inclination:      098.6605 deg
RA of node:       141.6282 deg
Eccentricity:    0.0012658
Arg of perigee:   019.7755 deg
Mean anomaly:     340.3915 deg
Mean motion:   14.27412906 rev/day
Decay rate:       -8.2e-07 rev/day^2
Epoch rev:           22758
Checksum:              296

Satellite: NOAA-11
Catalog number: 19531
Epoch time:      10112.30497748
Element set:      51
Inclination:      098.7670 deg
RA of node:       202.2796 deg
Eccentricity:    0.0011093
Arg of perigee:   311.3627 deg
Mean anomaly:     048.6617 deg
Mean motion:   14.14922372 rev/day
Decay rate:        9.1e-07 rev/day^2
Epoch rev:           11323
Checksum:              274

Satellite: NOAA-12
Catalog number: 21263
Epoch time:      10112.41446647
Element set:     537
Inclination:      098.7662 deg
RA of node:       125.5791 deg
Eccentricity:    0.0012041
Arg of perigee:   333.3584 deg
Mean anomaly:     026.6975 deg
Mean motion:   14.25629726 rev/day
Decay rate:       1.04e-06 rev/day^2
Epoch rev:           98445
Checksum:              302

